START_TIME,STEP,MOV.,M15,t_acc.,M20,t_acc.
1979-07-20 21:00:43.650 ,0,0,0.,24.0,0.,24.0
1979-07-20 21:01:07.650 ,0,1,0.,24.0,0.,24.0
1979-07-20 21:01:31.650 ,0,0,0.,24.0,0.,24.0
1979-07-20 21:01:55.650 ,1,1,0.,24.0,0.,24.0
1979-07-20 21:02:19.650 ,1,0,0.,24.0,0.,24.0
1979-07-20 21:02:43.650 ,2,1,0.,24.0,0.,24.0
1979-07-20 21:03:07.650 ,2,0,0.,24.0,0.,24.0
1979-07-20 21:03:31.650 ,3,1,0.,24.0,0.,24.0
1979-07-20 21:03:55.650 ,3,0,0.,24.0,0.,24.0
1979-07-20 21:04:19.650 ,4,1,0.,24.0,0.,24.0
1979-07-20 21:04:43.650 ,4,0,0.,24.0,0.,24.0
1979-07-20 21:05:07.650 ,5,1,0.,24.0,0.,24.0
1979-07-20 21:05:31.650 ,5,0,0.,24.0,0.,24.0
1979-07-20 21:05:55.650 ,6,1,0.,24.0,0.,24.0
1979-07-20 21:06:19.650 ,6,0,0.,24.0,0.,24.0
1979-07-20 21:06:43.650 ,7,0,0.,24.0,0.,24.0
1979-07-20 21:07:07.650 ,7,0,0.,24.0,0.,24.0
1979-07-20 21:07:31.650 ,3,1,0.,24.0,0.,24.0
1979-07-20 21:07:55.650 ,0,1,0.,24.0,0.,24.0
1979-07-20 21:08:19.650 ,4,1,0.,24.0,0.,24.0
1979-07-20 21:08:43.650 ,7,1,0.,24.0,0.,24.0
1979-07-20 21:09:07.650 ,3,1,0.,24.0,0.,24.0
1979-07-20 21:09:31.650 ,0,1,0.,24.0,0.,24.0
1979-07-20 21:09:55.650 ,4,1,0.,24.0,0.,24.0
1979-07-20 21:10:19.650 ,7,1,0.,24.0,0.,24.0
1979-07-20 21:10:43.650 ,3,1,0.,24.0,0.,24.0
1979-07-20 21:11:07.650 ,0,1,0.,24.0,0.,24.0
1979-07-20 21:11:31.650 ,4,1,0.,24.0,0.,24.0
1979-07-20 21:11:55.650 ,7,1,0.,24.0,0.,24.0
1979-07-20 21:12:19.650 ,3,1,0.,24.0,0.,24.0
1979-07-20 21:12:43.650 ,0,1,0.,24.0,0.,24.0
1979-07-20 21:13:07.650 ,4,1,0.,24.0,0.,24.0
1979-07-20 21:13:31.650 ,7,1,0.,24.0,0.,24.0
1979-07-20 21:13:55.650 ,3,1,0.,24.0,0.,24.0
1979-07-20 21:14:19.650 ,0,1,0.,24.0,0.,24.0
1979-07-20 21:14:43.650 ,4,1,0.,24.0,0.,24.0
1979-07-20 21:15:07.650 ,7,1,0.,24.0,0.,24.0
1979-07-20 21:15:31.650 ,3,1,0.,24.0,0.,24.0
1979-07-20 21:15:55.650 ,0,1,0.,24.0,0.,24.0
1979-07-20 21:16:19.650 ,4,1,0.,24.0,0.,24.0
1979-07-20 21:16:43.650 ,7,1,0.,24.0,0.,24.0
1979-07-20 21:17:07.650 ,3,1,0.,24.0,0.,24.0
1979-07-20 21:17:31.650 ,0,1,0.,24.0,0.,24.0
1979-07-20 21:17:55.650 ,0,0,0.,24.0,0.,24.0
1979-07-20 21:18:19.650 ,0,0,0.,24.0,0.,24.0
1979-07-20 21:18:43.650 ,5,1,0.,24.0,0.,24.0
1979-07-20 21:19:07.650 ,5,0,0.,24.0,0.,24.0
1979-07-20 21:19:31.650 ,4,1,0.,24.0,0.,24.0
1979-07-20 21:19:55.650 ,4,0,0.,24.0,0.,24.0
1979-07-20 21:20:19.650 ,3,1,0.,24.0,0.,24.0
1979-07-20 21:20:43.650 ,3,0,0.,24.0,0.,24.0
1979-07-20 21:21:07.650 ,2,1,0.,24.0,0.,24.0
1979-07-20 21:21:31.650 ,2,0,0.,24.0,0.,24.0
1979-07-20 21:21:55.650 ,1,1,0.,24.0,0.,24.0
1979-07-20 21:22:19.650 ,1,0,0.,24.0,0.,24.0
1979-07-20 21:22:43.650 ,0,1,0.,24.0,0.,24.0
1979-07-20 21:23:07.650 ,0,0,0.,24.0,0.,24.0
1979-07-20 21:23:31.650 ,0,1,0.,24.0,0.,24.0
1979-07-20 21:23:55.650 ,0,0,0.,24.0,0.,24.0
1979-07-20 21:24:19.650 ,1,1,0.,24.0,0.,24.0
1979-07-20 21:24:43.650 ,1,0,0.,24.0,0.,24.0
1979-07-20 21:25:07.650 ,2,1,0.,24.0,0.,24.0
1979-07-20 21:25:31.650 ,2,0,0.,24.0,0.,24.0
1979-07-20 21:25:55.650 ,3,1,0.,24.0,0.,24.0
1979-07-20 21:26:19.650 ,3,0,0.,24.0,0.,24.0
1979-07-20 21:26:43.650 ,4,1,0.,24.0,0.,24.0
1979-07-20 21:27:07.650 ,4,0,0.,24.0,0.,24.0
1979-07-20 21:27:31.650 ,0,0,,0,,0
1979-07-20 21:27:55.650 ,0,0,,0,,0
1979-07-20 21:28:19.650 ,0,0,0.,24.0,0.,24.0
1979-07-20 21:28:43.650 ,0,0,0.,24.0,0.,24.0
1979-07-20 21:29:07.650 ,7,1,0.,24.0,0.,24.0
1979-07-20 21:29:31.650 ,7,0,0.,24.0,0.,24.0
1979-07-20 21:29:55.650 ,7,1,0.,24.0,0.,24.0
1979-07-20 21:30:19.650 ,7,0,0.,24.0,0.,24.0
1979-07-20 21:30:43.650 ,6,1,0.,24.0,0.,24.0
1979-07-20 21:31:07.650 ,6,0,0.,24.0,0.,24.0
1979-07-20 21:31:31.650 ,5,1,0.,24.0,0.,24.0
1979-07-20 21:31:55.650 ,5,0,0.,24.0,0.,24.0
1979-07-20 21:32:19.650 ,4,1,0.,24.0,0.,24.0
1979-07-20 21:32:43.650 ,4,0,0.,24.0,0.,24.0
1979-07-20 21:33:07.650 ,3,1,0.,24.0,0.,24.0
1979-07-20 21:33:31.650 ,3,0,0.,24.0,0.,24.0
1979-07-20 21:33:55.650 ,2,1,0.,24.0,0.,24.0
1979-07-20 21:34:19.650 ,2,0,0.,24.0,0.,24.0
1979-07-20 21:34:43.650 ,1,1,0.,24.0,0.,24.0
1979-07-20 21:35:07.650 ,1,0,0.,24.0,0.,24.0
1979-07-20 21:35:31.650 ,0,1,0.,24.0,0.,24.0
1979-07-20 21:35:55.650 ,0,0,0.,24.0,0.,24.0
1979-07-20 21:36:19.650 ,0,1,0.,24.0,0.,24.0
1979-07-20 21:36:43.650 ,0,0,0.,24.0,0.,24.0
1979-07-20 21:37:07.650 ,1,1,0.,24.0,0.,24.0
1979-07-20 21:37:31.650 ,1,0,0.,24.0,0.,24.0
1979-07-20 21:37:55.650 ,2,1,0.,24.0,0.,24.0
1979-07-20 21:38:19.650 ,2,0,0.,24.0,0.,24.0
1979-07-20 21:38:43.650 ,3,1,0.,24.0,0.,24.0
1979-07-20 21:39:07.650 ,3,0,0.,24.0,0.,24.0
1979-07-20 21:39:31.650 ,4,1,0.,24.0,0.,24.0
1979-07-20 21:39:55.650 ,4,0,0.,24.0,0.,24.0
1979-07-20 21:40:19.650 ,5,1,0.,24.0,0.,24.0
1979-07-20 21:40:43.650 ,5,0,0.,24.0,0.,24.0
1979-07-20 21:41:07.650 ,6,1,0.,24.0,0.,24.0
1979-07-20 21:41:31.650 ,6,0,0.,24.0,0.,24.0
1979-07-20 21:41:55.650 ,7,1,0.,24.0,0.,24.0
1979-07-20 21:42:19.650 ,7,0,0.,24.0,0.,24.0
1979-07-20 21:42:43.650 ,7,1,0.,24.0,0.,24.0
1979-07-20 21:43:07.650 ,7,0,0.,24.0,0.,24.0
1979-07-20 21:43:31.650 ,6,1,0.,24.0,0.,24.0
1979-07-20 21:43:55.650 ,6,0,0.,24.0,0.,24.0
1979-07-20 21:44:19.650 ,5,1,0.,24.0,0.,24.0
1979-07-20 21:44:43.650 ,5,0,0.,24.0,0.,24.0
1979-07-20 21:45:07.650 ,4,1,0.,24.0,0.,24.0
1979-07-20 21:45:31.650 ,4,0,0.,24.0,0.,24.0
1979-07-20 21:45:55.650 ,3,1,0.,24.0,0.,24.0
1979-07-20 21:46:19.650 ,3,0,0.,24.0,0.,24.0
1979-07-20 21:46:43.650 ,2,1,0.,24.0,0.,24.0
1979-07-20 21:47:07.650 ,2,0,0.,24.0,0.,24.0
1979-07-20 21:47:31.650 ,1,1,0.,24.0,0.,24.0
1979-07-20 21:47:55.650 ,1,0,0.,24.0,0.,24.0
1979-07-20 21:48:19.650 ,0,1,0.,24.0,0.,24.0
1979-07-20 21:48:43.650 ,0,0,0.,24.0,0.,24.0
1979-07-20 21:49:07.650 ,0,1,0.,24.0,0.,24.0
1979-07-20 21:49:31.650 ,0,0,0.,24.0,0.,24.0
1979-07-20 21:49:55.650 ,1,1,0.,24.0,0.,24.0
1979-07-20 21:50:19.650 ,1,0,0.,24.0,0.,24.0
1979-07-20 21:50:43.650 ,2,1,0.,24.0,0.,24.0
1979-07-20 21:51:07.650 ,2,0,0.,24.0,0.,24.0
1979-07-20 21:51:31.650 ,3,1,0.,24.0,0.,24.0
1979-07-20 21:51:55.650 ,3,0,0.,24.0,0.,24.0
1979-07-20 21:52:19.650 ,4,1,0.,24.0,0.,24.0
1979-07-20 21:52:43.650 ,4,0,0.,24.0,0.,24.0
1979-07-20 21:53:07.650 ,5,1,0.,24.0,0.,24.0
1979-07-20 21:53:31.650 ,5,0,0.,24.0,0.,24.0
1979-07-20 21:53:55.650 ,6,1,0.,24.0,0.,24.0
1979-07-20 21:54:19.650 ,6,0,0.,24.0,0.,24.0
1979-07-20 21:54:43.650 ,7,0,0.,24.0,0.,24.0
1979-07-20 21:55:07.650 ,7,0,0.,24.0,0.,24.0
1979-07-20 21:55:31.650 ,3,1,0.,24.0,0.,24.0
1979-07-20 21:55:55.650 ,0,1,0.,24.0,0.,24.0
1979-07-20 21:56:19.650 ,4,1,0.,24.0,0.,24.0
1979-07-20 21:56:43.650 ,7,1,0.,24.0,0.,24.0
1979-07-20 21:57:07.650 ,3,1,0.,24.0,0.,24.0
1979-07-20 21:57:31.650 ,0,1,0.,24.0,0.,24.0
1979-07-20 21:57:55.650 ,4,1,0.,24.0,0.,24.0
1979-07-20 21:58:19.650 ,7,1,0.,24.0,0.,24.0
1979-07-20 21:58:43.650 ,3,1,0.,24.0,0.,24.0
1979-07-20 21:59:07.650 ,0,1,0.,24.0,0.,24.0
1979-07-20 21:59:31.650 ,4,1,0.,24.0,0.,24.0
1979-07-20 21:59:55.650 ,7,1,0.,24.0,0.,24.0
1979-07-20 22:00:19.650 ,3,1,0.,24.0,0.,24.0
1979-07-20 22:00:43.650 ,0,1,0.,24.0,0.,24.0
1979-07-20 22:01:07.650 ,4,1,0.,24.0,0.,24.0
1979-07-20 22:01:31.650 ,7,1,0.,24.0,0.,24.0
1979-07-20 22:01:55.650 ,3,1,0.,24.0,0.,24.0
1979-07-20 22:02:19.650 ,0,1,0.,24.0,0.,24.0
1979-07-20 22:02:43.650 ,4,1,0.,24.0,0.,24.0
1979-07-20 22:03:07.650 ,7,1,0.,24.0,0.,24.0
1979-07-20 22:03:31.650 ,3,1,0.,24.0,0.,24.0
1979-07-20 22:03:55.650 ,0,1,0.,24.0,0.,24.0
1979-07-20 22:04:19.640 ,4,1,0.,24.0,0.,24.0
1979-07-20 22:04:43.650 ,7,1,0.,24.0,0.,24.0
1979-07-20 22:05:07.650 ,3,1,0.,24.0,0.,24.0
1979-07-20 22:05:31.650 ,0,1,0.,24.0,0.,24.0
1979-07-20 22:05:55.650 ,0,0,0.,24.0,0.,24.0
1979-07-20 22:06:19.640 ,0,0,0.,24.0,0.,24.0
1979-07-20 22:06:43.640 ,5,1,0.,24.0,0.,24.0
1979-07-20 22:07:07.640 ,5,0,0.,24.0,0.,24.0
1979-07-20 22:07:31.640 ,4,1,0.,24.0,0.,24.0
1979-07-20 22:07:55.640 ,4,0,0.,24.0,0.,24.0
1979-07-20 22:08:19.640 ,3,1,1.,24.0,0.,24.0
1979-07-20 22:08:43.640 ,3,0,0.,24.0,0.,24.0
1979-07-20 22:09:07.640 ,2,1,0.,24.0,0.,24.0
1979-07-20 22:09:31.640 ,2,0,0.,24.0,0.,24.0
1979-07-20 22:09:55.640 ,1,1,0.,24.0,0.,24.0
1979-07-20 22:10:19.640 ,1,0,0.,24.0,0.,24.0
1979-07-20 22:10:43.640 ,0,1,0.,24.0,0.,24.0
1979-07-20 22:11:07.640 ,0,0,0.,24.0,0.,24.0
1979-07-20 22:11:31.640 ,0,1,0.,24.0,0.,24.0
1979-07-20 22:11:55.640 ,0,0,0.,24.0,0.,24.0
1979-07-20 22:12:19.640 ,1,1,0.,24.0,0.,24.0
1979-07-20 22:12:43.640 ,1,0,0.,24.0,0.,24.0
1979-07-20 22:13:07.640 ,2,1,0.,24.0,0.,24.0
1979-07-20 22:13:31.640 ,2,0,0.,24.0,0.,24.0
1979-07-20 22:13:55.640 ,3,1,0.,24.0,0.,24.0
1979-07-20 22:14:19.640 ,3,0,0.,24.0,0.,24.0
1979-07-20 22:14:43.640 ,4,1,0.,24.0,0.,24.0
1979-07-20 22:15:07.640 ,4,0,0.,24.0,0.,24.0
1979-07-20 22:15:31.640 ,5,1,0.,24.0,0.,24.0
1979-07-20 22:15:55.640 ,5,0,0.,24.0,0.,24.0
1979-07-20 22:16:19.640 ,6,1,0.,24.0,0.,24.0
1979-07-20 22:16:43.640 ,6,0,0.,24.0,0.,24.0
1979-07-20 22:17:07.640 ,7,1,0.,24.0,0.,24.0
1979-07-20 22:17:31.640 ,7,0,0.,24.0,0.,24.0
1979-07-20 22:17:55.640 ,7,1,0.,24.0,0.,24.0
1979-07-20 22:18:19.640 ,7,0,0.,24.0,0.,24.0
1979-07-20 22:18:43.640 ,6,1,0.,24.0,0.,24.0
1979-07-20 22:19:07.640 ,6,0,0.,24.0,0.,24.0
1979-07-20 22:19:31.640 ,5,1,0.,24.0,0.,24.0
1979-07-20 22:19:55.640 ,5,0,0.,24.0,0.,24.0
1979-07-20 22:20:19.640 ,4,1,0.,24.0,0.,24.0
1979-07-20 22:20:43.640 ,4,0,0.,24.0,0.,24.0
1979-07-20 22:21:07.640 ,3,1,0.,24.0,0.,24.0
1979-07-20 22:21:31.640 ,3,0,0.,24.0,0.,24.0
1979-07-20 22:21:55.640 ,2,1,0.,24.0,0.,24.0
1979-07-20 22:22:19.640 ,2,0,0.,24.0,0.,24.0
1979-07-20 22:22:43.640 ,1,1,0.,24.0,0.,24.0
1979-07-20 22:23:07.640 ,1,0,0.,24.0,0.,24.0
1979-07-20 22:23:31.640 ,0,1,0.,24.0,0.,24.0
1979-07-20 22:23:55.640 ,0,0,0.,24.0,0.,24.0
1979-07-20 22:24:19.640 ,0,1,0.,24.0,0.,24.0
1979-07-20 22:24:43.640 ,0,0,0.,24.0,0.,24.0
1979-07-20 22:25:07.640 ,1,1,0.,24.0,0.,24.0
1979-07-20 22:25:31.640 ,1,0,0.,24.0,0.,24.0
1979-07-20 22:25:55.640 ,2,1,0.,24.0,0.,24.0
1979-07-20 22:26:19.640 ,2,0,0.,24.0,0.,24.0
1979-07-20 22:26:43.640 ,3,1,0.,24.0,0.,24.0
1979-07-20 22:27:07.640 ,3,0,0.,24.0,0.,24.0
1979-07-20 22:27:31.640 ,4,1,0.,24.0,0.,24.0
1979-07-20 22:27:55.640 ,4,0,0.,24.0,0.,24.0
1979-07-20 22:28:19.640 ,5,1,0.,24.0,0.,24.0
1979-07-20 22:28:43.640 ,5,0,0.,24.0,0.,24.0
1979-07-20 22:29:07.640 ,6,1,0.,24.0,0.,24.0
1979-07-20 22:29:31.640 ,6,0,0.,24.0,0.,24.0
1979-07-20 22:29:55.640 ,7,1,0.,24.0,0.,24.0
1979-07-20 22:30:19.640 ,7,0,0.,24.0,0.,24.0
1979-07-20 22:30:43.640 ,7,1,0.,24.0,0.,24.0
1979-07-20 22:31:07.640 ,7,0,0.,24.0,0.,24.0
1979-07-20 22:31:31.640 ,6,1,0.,24.0,0.,24.0
1979-07-20 22:31:55.640 ,6,0,0.,24.0,0.,24.0
1979-07-20 22:32:19.640 ,5,1,0.,24.0,0.,24.0
1979-07-20 22:32:43.640 ,5,0,0.,24.0,0.,24.0
1979-07-20 22:33:07.640 ,4,1,0.,24.0,0.,24.0
1979-07-20 22:33:31.640 ,4,0,0.,24.0,0.,24.0
1979-07-20 22:33:55.640 ,3,1,0.,24.0,0.,24.0
1979-07-20 22:34:19.640 ,3,0,0.,24.0,0.,24.0
1979-07-20 22:34:43.640 ,2,1,0.,24.0,0.,24.0
1979-07-20 22:35:07.640 ,2,0,0.,24.0,0.,24.0
1979-07-20 22:35:31.640 ,1,1,0.,24.0,0.,24.0
1979-07-20 22:35:55.640 ,1,0,0.,24.0,0.,24.0
1979-07-20 22:36:19.640 ,0,1,0.,24.0,0.,24.0
1979-07-20 22:36:43.640 ,0,0,0.,24.0,0.,24.0
1979-07-20 22:37:07.640 ,0,1,0.,24.0,0.,24.0
1979-07-20 22:37:31.640 ,0,0,0.,24.0,0.,24.0
1979-07-20 22:37:55.640 ,1,1,0.,24.0,0.,24.0
1979-07-20 22:38:19.640 ,1,0,0.,24.0,0.,24.0
1979-07-20 22:38:43.640 ,2,1,0.,24.0,0.,24.0
1979-07-20 22:39:07.640 ,2,0,0.,24.0,0.,24.0
1979-07-20 22:39:31.640 ,3,1,0.,24.0,0.,24.0
1979-07-20 22:39:55.640 ,3,0,0.,24.0,0.,24.0
1979-07-20 22:40:19.640 ,4,1,0.,24.0,0.,24.0
1979-07-20 22:40:43.640 ,4,0,0.,24.0,0.,24.0
1979-07-20 22:41:07.640 ,5,1,0.,24.0,0.,24.0
1979-07-20 22:41:31.640 ,5,0,0.,24.0,0.,24.0
1979-07-20 22:41:55.640 ,6,1,0.,24.0,0.,24.0
1979-07-20 22:42:19.640 ,6,0,0.,24.0,0.,24.0
1979-07-20 22:42:43.640 ,7,0,0.,24.0,0.,24.0
1979-07-20 22:43:07.640 ,7,0,0.,24.0,0.,24.0
1979-07-20 22:43:31.640 ,3,1,0.,24.0,0.,24.0
1979-07-20 22:43:55.640 ,0,1,0.,24.0,0.,24.0
1979-07-20 22:44:19.640 ,4,1,0.,24.0,0.,24.0
1979-07-20 22:44:43.640 ,7,1,0.,24.0,0.,24.0
1979-07-20 22:45:07.640 ,3,1,0.,24.0,0.,24.0
1979-07-20 22:45:31.640 ,0,1,0.,24.0,0.,24.0
1979-07-20 22:45:55.640 ,4,1,0.,24.0,0.,24.0
1979-07-20 22:46:19.640 ,7,1,0.,24.0,0.,24.0
1979-07-20 22:46:43.640 ,3,1,0.,24.0,0.,24.0
1979-07-20 22:47:07.640 ,0,1,0.,24.0,0.,24.0
1979-07-20 22:47:31.640 ,4,1,0.,24.0,0.,24.0
1979-07-20 22:47:55.640 ,7,1,0.,24.0,0.,24.0
1979-07-20 22:48:19.640 ,3,1,0.,24.0,0.,24.0
1979-07-20 22:48:43.640 ,0,1,0.,24.0,0.,24.0
1979-07-20 22:49:07.640 ,4,1,0.,24.0,0.,24.0
1979-07-20 22:49:31.640 ,7,1,0.,24.0,0.,24.0
1979-07-20 22:49:55.640 ,3,1,0.,24.0,0.,24.0
1979-07-20 22:50:19.640 ,0,1,0.,24.0,0.,24.0
1979-07-20 22:50:43.640 ,4,1,0.,24.0,0.,24.0
1979-07-20 22:51:07.640 ,7,1,0.,24.0,0.,24.0
1979-07-20 22:51:31.640 ,3,1,0.,24.0,0.,24.0
1979-07-20 22:51:55.640 ,0,1,0.,24.0,0.,24.0
1979-07-20 22:52:19.640 ,4,1,0.,24.0,0.,24.0
1979-07-20 22:52:43.640 ,7,1,0.,24.0,0.,24.0
1979-07-20 22:53:07.640 ,3,1,0.,24.0,0.,24.0
1979-07-20 22:53:31.640 ,0,1,0.,24.0,0.,24.0
1979-07-20 22:53:55.640 ,0,0,0.,24.0,0.,24.0
1979-07-20 22:54:19.640 ,0,0,0.,24.0,0.,24.0
1979-07-20 22:54:43.640 ,5,1,0.,24.0,0.,24.0
1979-07-20 22:55:07.640 ,5,0,0.,24.0,0.,24.0
1979-07-20 22:55:31.640 ,4,1,0.,24.0,0.,24.0
1979-07-20 22:55:55.640 ,4,0,0.,24.0,0.,24.0
1979-07-20 22:56:19.640 ,3,1,0.,24.0,0.,24.0
1979-07-20 22:56:43.640 ,3,0,0.,24.0,0.,24.0
1979-07-20 22:57:07.640 ,2,1,0.,24.0,0.,24.0
1979-07-20 22:57:31.640 ,2,0,0.,24.0,0.,24.0
1979-07-20 22:57:55.640 ,1,1,0.,24.0,0.,24.0
1979-07-20 22:58:19.640 ,1,0,0.,24.0,0.,24.0
1979-07-20 22:58:43.640 ,0,1,0.,24.0,0.,24.0
1979-07-20 22:59:07.640 ,0,0,0.,24.0,0.,24.0
1979-07-20 22:59:31.640 ,0,1,0.,24.0,0.,24.0
1979-07-20 22:59:55.640 ,0,0,0.,24.0,0.,24.0
1979-07-20 23:00:19.640 ,1,1,0.,24.0,0.,24.0
1979-07-20 23:00:43.640 ,1,0,0.,24.0,0.,24.0
1979-07-20 23:01:07.640 ,2,1,0.,24.0,0.,24.0
1979-07-20 23:01:31.640 ,2,0,0.,24.0,0.,24.0
1979-07-20 23:01:55.640 ,3,1,0.,24.0,0.,24.0
1979-07-20 23:02:19.640 ,3,0,0.,24.0,0.,24.0
1979-07-20 23:02:43.640 ,4,1,0.,24.0,0.,24.0
1979-07-20 23:03:07.640 ,4,0,0.,24.0,0.,24.0
1979-07-20 23:03:31.640 ,5,1,0.,24.0,0.,24.0
1979-07-20 23:03:55.640 ,5,0,0.,24.0,0.,24.0
1979-07-20 23:04:19.640 ,6,1,0.,24.0,0.,24.0
1979-07-20 23:04:43.640 ,6,0,0.,24.0,0.,24.0
1979-07-20 23:05:07.640 ,7,1,0.,24.0,0.,24.0
1979-07-20 23:05:31.640 ,7,0,0.,24.0,0.,24.0
1979-07-20 23:05:55.640 ,7,1,0.,24.0,0.,24.0
1979-07-20 23:06:19.640 ,7,0,0.,24.0,0.,24.0
1979-07-20 23:06:43.640 ,6,1,0.,24.0,0.,24.0
1979-07-20 23:07:07.640 ,6,0,0.,24.0,0.,24.0
1979-07-20 23:07:31.640 ,5,1,0.,24.0,0.,24.0
1979-07-20 23:07:55.640 ,5,0,0.,24.0,0.,24.0
1979-07-20 23:08:19.640 ,0,0,0.,24.0,0.,24.0
1979-07-20 23:08:43.640 ,0,0,0.,24.0,0.,24.0
1979-07-20 23:09:07.640 ,3,1,0.,24.0,0.,24.0
1979-07-20 23:09:31.640 ,3,0,0.,24.0,0.,24.0
1979-07-20 23:09:55.640 ,2,1,0.,24.0,0.,24.0
1979-07-20 23:10:19.640 ,2,0,0.,24.0,0.,24.0
1979-07-20 23:10:43.640 ,1,1,0.,24.0,0.,24.0
1979-07-20 23:11:07.640 ,1,0,0.,24.0,0.,24.0
1979-07-20 23:11:31.640 ,0,1,0.,24.0,0.,24.0
1979-07-20 23:11:55.640 ,0,0,0.,24.0,0.,24.0
1979-07-20 23:12:19.640 ,0,1,0.,24.0,0.,24.0
1979-07-20 23:12:43.640 ,0,0,0.,24.0,0.,24.0
1979-07-20 23:13:07.640 ,1,1,0.,24.0,0.,24.0
1979-07-20 23:13:31.640 ,1,0,0.,24.0,0.,24.0
1979-07-20 23:13:55.640 ,2,1,0.,24.0,0.,24.0
1979-07-20 23:14:19.640 ,2,0,0.,24.0,0.,24.0
1979-07-20 23:14:43.640 ,3,1,0.,24.0,0.,24.0
1979-07-20 23:15:07.640 ,3,0,0.,24.0,0.,24.0
1979-07-20 23:15:31.640 ,4,1,0.,24.0,0.,24.0
1979-07-20 23:15:55.640 ,4,0,0.,24.0,0.,24.0
1979-07-20 23:16:19.640 ,5,1,0.,24.0,0.,24.0
1979-07-20 23:16:43.640 ,5,0,0.,24.0,0.,24.0
1979-07-20 23:17:07.640 ,6,1,0.,24.0,0.,24.0
1979-07-20 23:17:31.640 ,6,0,0.,24.0,0.,24.0
1979-07-20 23:17:55.640 ,7,1,0.,24.0,0.,24.0
1979-07-20 23:18:19.640 ,7,0,0.,24.0,0.,24.0
1979-07-20 23:18:43.640 ,7,1,0.,24.0,0.,24.0
1979-07-20 23:19:07.640 ,7,0,0.,24.0,0.,24.0
1979-07-20 23:19:31.640 ,6,1,0.,24.0,0.,24.0
1979-07-20 23:19:55.640 ,6,0,0.,24.0,0.,24.0
1979-07-20 23:20:19.640 ,5,1,0.,24.0,0.,24.0
1979-07-20 23:20:43.640 ,5,0,0.,24.0,0.,24.0
1979-07-20 23:21:07.640 ,4,1,0.,24.0,0.,24.0
1979-07-20 23:21:31.640 ,4,0,0.,24.0,0.,24.0
1979-07-20 23:21:55.640 ,3,1,0.,24.0,0.,24.0
1979-07-20 23:22:19.640 ,3,0,0.,24.0,0.,24.0
1979-07-20 23:22:43.640 ,2,1,0.,24.0,0.,24.0
1979-07-20 23:23:07.640 ,2,0,0.,24.0,0.,24.0
1979-07-20 23:23:31.640 ,1,1,0.,24.0,0.,24.0
1979-07-20 23:23:55.640 ,1,0,0.,24.0,0.,24.0
1979-07-20 23:24:19.640 ,0,1,0.,24.0,0.,24.0
1979-07-20 23:24:43.640 ,0,0,0.,24.0,0.,24.0
1979-07-20 23:25:07.640 ,0,1,0.,24.0,0.,24.0
1979-07-20 23:25:31.640 ,0,0,0.,24.0,0.,24.0
1979-07-20 23:25:55.640 ,1,1,0.,24.0,0.,24.0
1979-07-20 23:26:19.640 ,1,0,0.,24.0,0.,24.0
1979-07-20 23:26:43.640 ,2,1,0.,24.0,0.,24.0
1979-07-20 23:27:07.640 ,2,0,0.,24.0,0.,24.0
1979-07-20 23:27:31.640 ,3,1,0.,24.0,0.,24.0
1979-07-20 23:27:55.640 ,3,0,0.,24.0,0.,24.0
1979-07-20 23:28:19.640 ,4,1,0.,24.0,0.,24.0
1979-07-20 23:28:43.640 ,4,0,0.,24.0,0.,24.0
1979-07-20 23:29:07.640 ,5,1,0.,24.0,0.,24.0
1979-07-20 23:29:31.640 ,5,0,0.,24.0,0.,24.0
1979-07-20 23:29:55.640 ,6,1,0.,24.0,0.,24.0
1979-07-20 23:30:19.640 ,6,0,0.,24.0,0.,24.0
1979-07-20 23:30:43.640 ,7,0,0.,24.0,0.,24.0
1979-07-20 23:31:07.640 ,7,0,0.,24.0,0.,24.0
1979-07-20 23:31:31.640 ,3,1,0.,24.0,0.,24.0
1979-07-20 23:31:55.640 ,0,1,0.,24.0,0.,24.0
1979-07-20 23:32:19.640 ,4,1,0.,24.0,0.,24.0
1979-07-20 23:32:43.640 ,7,1,0.,24.0,0.,24.0
1979-07-20 23:33:07.640 ,3,1,0.,24.0,0.,24.0
1979-07-20 23:33:31.640 ,0,1,0.,24.0,0.,24.0
1979-07-20 23:33:55.640 ,4,1,0.,24.0,0.,24.0
1979-07-20 23:34:19.640 ,7,1,0.,24.0,0.,24.0
1979-07-20 23:34:43.640 ,3,1,0.,24.0,0.,24.0
1979-07-20 23:35:07.640 ,0,1,0.,24.0,0.,24.0
1979-07-20 23:35:31.640 ,4,1,0.,24.0,0.,24.0
1979-07-20 23:35:55.640 ,7,1,0.,24.0,0.,24.0
1979-07-20 23:36:19.640 ,3,1,0.,24.0,0.,24.0
1979-07-20 23:36:43.640 ,0,1,0.,24.0,0.,24.0
1979-07-20 23:37:07.640 ,4,1,0.,24.0,0.,24.0
1979-07-20 23:37:31.640 ,7,1,0.,24.0,0.,24.0
1979-07-20 23:37:55.640 ,3,1,0.,24.0,0.,24.0
1979-07-20 23:38:19.640 ,0,1,0.,24.0,0.,24.0
1979-07-20 23:38:43.640 ,4,1,0.,24.0,0.,24.0
1979-07-20 23:39:07.640 ,7,1,0.,24.0,0.,24.0
1979-07-20 23:39:31.640 ,3,1,0.,24.0,0.,24.0
1979-07-20 23:39:55.640 ,0,1,0.,24.0,0.,24.0
1979-07-20 23:40:19.640 ,4,1,0.,24.0,0.,24.0
1979-07-20 23:40:43.640 ,7,1,0.,24.0,0.,24.0
1979-07-20 23:41:07.640 ,3,1,0.,24.0,0.,24.0
1979-07-20 23:41:31.640 ,0,1,0.,24.0,0.,24.0
1979-07-20 23:41:55.640 ,0,0,0.,24.0,0.,24.0
1979-07-20 23:42:19.640 ,0,0,0.,24.0,0.,24.0
1979-07-20 23:42:43.640 ,5,1,0.,24.0,0.,24.0
1979-07-20 23:43:07.640 ,5,0,0.,24.0,0.,24.0
1979-07-20 23:43:31.640 ,4,1,0.,24.0,0.,24.0
1979-07-20 23:43:55.640 ,4,0,0.,24.0,0.,24.0
1979-07-20 23:44:19.640 ,3,1,0.,24.0,0.,24.0
1979-07-20 23:44:43.640 ,3,0,0.,24.0,0.,24.0
1979-07-20 23:45:07.640 ,2,1,0.,24.0,0.,24.0
1979-07-20 23:45:31.640 ,2,0,0.,24.0,0.,24.0
1979-07-20 23:45:55.640 ,1,1,0.,24.0,0.,24.0
1979-07-20 23:46:19.640 ,1,0,0.,24.0,0.,24.0
1979-07-20 23:46:43.640 ,0,1,0.,24.0,0.,24.0
1979-07-20 23:47:07.640 ,0,0,0.,24.0,0.,24.0
1979-07-20 23:47:31.640 ,0,1,0.,24.0,0.,24.0
1979-07-20 23:47:55.640 ,0,0,0.,24.0,0.,24.0
1979-07-20 23:48:19.640 ,1,1,0.,24.0,0.,24.0
1979-07-20 23:48:43.640 ,1,0,0.,24.0,0.,24.0
1979-07-20 23:49:07.640 ,2,1,0.,24.0,0.,24.0
1979-07-20 23:49:31.640 ,2,0,0.,24.0,0.,24.0
1979-07-20 23:49:55.640 ,3,1,0.,24.0,0.,24.0
1979-07-20 23:50:19.640 ,3,0,0.,24.0,0.,24.0
1979-07-20 23:50:43.640 ,4,1,0.,24.0,0.,24.0
1979-07-20 23:51:07.640 ,4,0,0.,24.0,0.,24.0
1979-07-20 23:51:31.640 ,5,1,0.,24.0,0.,24.0
1979-07-20 23:51:55.640 ,5,0,0.,24.0,0.,24.0
1979-07-20 23:52:19.640 ,6,1,0.,24.0,0.,24.0
1979-07-20 23:52:43.640 ,6,0,0.,24.0,0.,24.0
1979-07-20 23:53:07.640 ,7,1,0.,24.0,0.,24.0
1979-07-20 23:53:31.640 ,7,0,0.,24.0,0.,24.0
1979-07-20 23:53:55.640 ,7,1,0.,24.0,0.,24.0
1979-07-20 23:54:19.640 ,7,0,0.,24.0,0.,24.0
1979-07-20 23:54:43.640 ,6,1,0.,24.0,0.,24.0
1979-07-20 23:55:07.640 ,6,0,0.,24.0,0.,24.0
1979-07-20 23:55:31.640 ,5,1,0.,24.0,0.,24.0
1979-07-20 23:55:55.640 ,5,0,0.,24.0,0.,24.0
1979-07-20 23:56:19.640 ,4,1,0.,24.0,0.,24.0
1979-07-20 23:56:43.640 ,4,0,0.,24.0,0.,24.0
1979-07-20 23:57:07.640 ,3,1,0.,24.0,0.,24.0
1979-07-20 23:57:31.640 ,3,0,0.,24.0,0.,24.0
1979-07-20 23:57:55.640 ,2,1,0.,24.0,0.,24.0
1979-07-20 23:58:19.640 ,2,0,0.,24.0,0.,24.0
1979-07-20 23:58:43.640 ,1,1,0.,24.0,0.,24.0
1979-07-20 23:59:07.640 ,1,0,0.,24.0,0.,24.0
1979-07-20 23:59:31.640 ,0,1,0.,24.0,0.,24.0
1979-07-20 23:59:55.640 ,0,0,0.,24.0,0.,24.0
1979-07-21 00:00:19.640 ,0,1,0.,24.0,0.,24.0
